Location: Devargunta
(16.7631°N, 80.9077°E)
Time: 16:55:17
(UTC+00:00)

BREEZE-M DEB (TANK) - Pass Details

Date: 19 January 2021
Orbit: 291 x 18740 km, 52.4° (Epoch: 25 February)

Event Time Altitude Azimuth Distance (km) Brightness Sun altitude
Rises 23:08:15 0° 214° (SW) 13,074 9.6 -28.4°
Reaches altitude 10° 23:22:30 10° 215° (SW) 8,744 8.7 -25.1°
Maximum altitude 23:42:22 90° 142° (SE) 1,274 4.5 -20.5°
Drops below altitude 10° 23:46:39 10° 37° (NE) 2,106 6.0 -19.5°
Sets 23:47:57 0° 38° (NE) 2,690 6.6 -19.2°
